Location: Eaton
(41.3139°N, 82.0207°W)
Time: 00:11:22
(UTC+00:00)

Cosmos 1470 - Pass Details

Date: 17 June 2021
Orbit: 519 x 542 km, 82.5° (Epoch: 02 August)

Event Time Altitude Azimuth Distance (km) Brightness Sun altitude
Rises 02:31:13 0° 345° (NNW) 2,712 7.6 -13.3°
Reaches altitude 10° 02:33:27 10° 338° (NNW) 1,813 6.7 -13.6°
Maximum altitude 02:37:14 43° 267° (W) 772 3.8 -14.0°
Drops below altitude 10° 02:40:57 10° 196° (SSW) 1,788 5.1 -14.5°
Enters shadow 02:40:59 10° 196° (SSW) 1,800 5.1 -14.5°
